Temperature
29 29 29 29 29 29 29 29 29 29 29 29 28 27 26 25 24 23 22 21 21 20 20 19 18 18 18 17 17 17 16 16 16 16 16 15 15 15 15 14 14 14 14 14
28 29 29 28 29 29 28 29 29 28 28 29 27 26 25 24 23 23 22 21 20 20 19 19 18 18 17 17 17 17 16 16 16 15 15 15 15 14 14 14 14 14 14 13
28 28 28 28 28 28 28 29 29 28 28 28 27 25 24 23 23 22 22 21 20 19 19 18 18 18 17 17 17 17 16 16 15 15 15 15 14 14 14 13 13 13 13 13
27 27 26 28 28 28 28 28 28 28 28 27 26 25 23 22 22 22 21 20 20 19 18 18 18 18 17 17 17 16 16 15 15 15 14 14 14 14 13 13 13 13 13 13
27 27 27 28 27 27 27 27 28 27 27 26 25 24 23 22 21 21 20 19 19 18 18 18 18 17 17 16 16 16 15 15 15 14 14 14 14 14 13 13 13 13 13 13
26 26 26 27 27 26 27 26 27 26 26 25 24 25 25 21 20 20 19 19 18 18 18 18 17 17 16 16 16 15 15 15 14 14 14 14 14 13 13 13 13 13 13 12
26 26 27 27 26 26 26 26 25 25 24 24 24 24 22 20 20 19 18 18 18 17 17 17 17 16 16 16 15 15 15 14 14 14 14 14 13 13 13 13 12 12 12 12
25 25 26 25 25 25 25 24 24 24 23 23 22 21 20 20 19 18 18 17 17 17 17 17 16 16 15 15 15 14 14 14 14 14 13 13 13 13 13 12 12 12 12 12
26 26 24 23 24 23 22 23 23 23 22 22 21 21 20 19 18 18 18 17 17 17 16 16 16 15 15 15 14 14 14 14 13 13 13 13 13 12 12 12 12 12 12 12
24 25 23 22 22 21 21 22 22 21 21 21 21 20 19 18 18 17 17 17 17 16 16 16 15 15 15 14 14 14 14 13 13 13 13 13 12 12 12 12 12 12 12 12
23 23 22 22 21 21 20 21 20 20 20 20 20 19 18 18 17 17 17 17 16 16 16 16 15 15 14 14 14 14 13 13 13 13 13 12 12 12 12 12 12 12 11 11
23 22 22 21 20 20 20 20 20 20 19 19 19 19 18 17 17 17 17 16 16 16 16 15 15 14 14 14 14 14 13 13 13 13 12 12 12 12 12 12 11 11 11 11
21 20 20 20 19 19 19 19 19 19 19 18 18 18 17 17 17 16 16 16 16 15 15 15 14 14 14 14 14 13 13 13 12 12 12 12 12 12 12 12 11 11 11 11
18 18 19 19 19 19 19 19 19 18 18 18 18 17 17 17 16 16 16 16 16 15 15 14 14 14 14 14 13 13 12 12 12 12 12 12 12 12 11 11 11 11 11 10
18 18 18 18 18 18 18 18 18 18 18 17 17 17 17 16 16 16 16 15 15 15 15 14 14 14 14 13 13 13 12 12 12 12 12 12 11 11 11 11 11 11 11 10
18 18 18 18 18 18 18 18 18 18 17 17 17 16 16 16 16 15 15 15 15 14 14 14 14 13 13 13 12 12 12 12 12 11 11 11 11 11 11 11 11 11 11 10
18 18 18 18 18 18 18 18 17 17 17 17 16 16 16 16 15 15 15 15 14 14 14 14 13 13 13 12 12 12 12 12 11 11 11 11 11 11 11 11 10 10 10 10
17 17 18 18 17 17 17 17 17 16 16 16 16 15 15 15 15 15 15 14 14 14 13 13 13 13 12 12 12 12 12 11 11 11 11 11 10 10 10 10 10 10 9 9
17 17 17 17 17 17 17 17 16 16 16 16 16 15 15 15 14 14 14 14 14 13 13 13 13 13 12 12 12 11 11 11 11 11 10 10 10 10 10 10 10 9 9 9
16 16 16 16 16 16 16 16 16 16 16 16 15 15 15 14 14 14 14 13 13 13 13 13 13 12 12 12 12 11 11 11 11 10 10 10 10 10 10 9 9 9 9 9
16 16 16 16 16 15 15 15 15 15 15 15 15 14 14 14 14 14 13 13 13 13 13 12 12 12 12 11 11 11 11 11 10 10 10 10 10 10 9 9 9 9 8 8
15 15 15 15 15 15 15 15 15 15 15 14 14 14 14 14 13 13 13 13 12 12 12 12 12 11 11 11 11 10 10 10 10 10 10 9 9 9 9 9 9 8 8 8
14 14 14 14 14 14 14 14 14 14 14 14 14 14 13 13 13 13 12 12 12 12 12 11 11 11 11 10 10 10 10 10 10 10 9 9 9 9 9 8 8 8 8 8
13 13 13 14 14 14 14 14 14 13 13 13 13 13 13 13 13 12 12 12 12 12 11 11 11 11 10 10 10 10 10 9 9 9 9 9 9 8 8 8 8 8 7 7
13 13 13 13 13 13 13 13 13 13 13 13 13 12 13 12 12 12 12 11 11 11 11 11 10 10 10 10 10 9 9 9 9 9 9 9 9 8 8 8 7 7 7 7
12 12 12 12 12 13 13 13 13 13 13 13 12 12 12 12 12 12 11 11 11 11 11 10 10 10 10 10 9 9 9 9 9 9 9 8 8 8 8 8 7 7 7 7
12 12 12 12 12 12 13 13 12 12 12 12 12 12 12 12 12 12 11 11 11 11 10 10 10 10 10 10 9 9 9 9 9 8 8 8 8 8 8 7 7 7 7 7
Wind_Speed
8 6 6 8 9 8 10 10 11 8 8 5 3 3 3 4 5 6 6 6 5 5 5 5 4 4 3 3 2 2 2 1 1 0 0 0 0 1 1 1 1 2 2 2
9 8 8 10 10 9 9 10 10 10 8 4 2 3 4 5 6 7 6 6 6 5 5 5 4 4 4 3 2 2 2 1 1 0 0 0 0 0 0 1 1 2 2 3
9 7 9 11 8 8 8 8 9 9 6 2 3 4 5 5 6 6 6 6 6 6 5 4 4 4 4 3 2 2 2 1 1 1 0 0 1 0 1 1 1 2 2 3
7 7 10 4 2 5 7 7 7 7 5 4 4 4 4 5 6 6 6 6 6 5 5 4 4 4 4 3 3 2 1 1 0 1 1 1 1 1 1 1 2 2 2 3
8 10 9 5 4 5 6 7 5 6 5 4 3 4 5 5 5 6 6 6 5 5 5 4 5 5 4 4 3 2 1 1 0 1 1 1 1 1 1 2 2 2 2 2
8 9 9 3 2 2 6 7 2 4 4 3 4 6 4 6 5 5 6 6 5 5 5 5 5 4 4 3 2 2 1 1 1 1 1 1 2 2 2 2 3 3 2 3
10 10 6 2 1 3 6 2 2 3 4 5 5 3 3 6 6 6 6 6 6 5 5 5 5 4 3 2 2 1 1 1 1 1 1 1 2 2 2 3 3 4 4 3
8 10 6 3 2 3 4 5 4 3 3 3 2 3 4 6 6 7 6 6 6 5 4 4 4 4 3 2 1 1 1 1 1 1 2 1 1 2 2 3 3 3 3 3
5 4 2 1 2 3 5 5 5 3 3 3 3 4 5 5 6 6 6 6 5 5 5 4 3 3 2 1 1 0 0 0 0 1 1 2 2 2 3 3 3 3 3 3
4 4 2 2 3 4 5 4 4 4 3 4 4 4 5 5 6 6 5 5 5 5 5 4 3 2 2 2 1 1 1 2 2 2 2 1 2 3 3 3 3 3 3 3
6 4 3 2 3 4 4 3 3 2 3 3 4 5 5 5 5 5 5 5 5 5 5 4 3 2 2 2 2 2 2 3 3 3 2 2 2 2 3 3 3 4 4 4
5 2 4 3 4 4 3 3 2 1 2 3 4 5 5 5 5 5 5 5 5 5 5 4 4 3 2 1 2 2 3 3 3 3 2 2 2 2 1 2 1 2 4 5
4 4 5 5 4 4 3 2 1 1 2 2 4 5 6 5 5 5 5 5 5 5 5 4 4 3 2 2 2 3 3 3 3 2 2 3 3 3 3 2 4 6 6 5
3 3 4 4 4 4 3 2 1 1 2 2 4 5 6 6 6 5 5 5 5 5 5 4 4 3 2 2 2 3 4 3 3 3 3 3 3 3 3 4 3 3 4 5
3 4 5 4 4 3 2 2 2 2 3 3 4 5 6 6 6 5 5 4 5 5 4 4 4 3 3 3 3 3 3 3 3 3 3 3 3 3 3 4 4 4 4 2
4 3 4 4 4 3 3 3 3 3 3 4 4 4 5 5 5 5 5 5 5 5 4 4 4 4 4 3 3 4 3 2 3 3 3 3 3 3 4 4 4 4 5 4
5 5 5 5 4 4 4 4 3 3 3 4 4 4 4 4 5 5 4 4 4 4 4 4 4 3 3 4 4 4 3 3 4 3 3 3 3 4 4 4 4 4 4 3
7 7 7 6 5 5 4 4 3 3 3 3 3 4 4 4 4 4 4 4 3 3 3 3 3 3 3 4 4 3 3 2 2 3 3 3 3 4 4 4 4 4 4 2
4 5 5 6 5 5 4 4 3 3 3 4 4 4 4 4 4 4 4 4 3 3 2 2 3 4 3 3 3 3 3 3 3 3 3 3 4 4 4 4 3 3 4 4
3 4 4 4 4 3 3 3 3 3 4 4 4 4 5 5 4 4 4 3 2 1 1 1 3 3 3 2 3 3 3 3 3 2 3 3 3 3 3 3 3 4 4 4
3 3 3 2 2 2 2 2 2 3 4 4 5 5 4 4 4 4 3 3 2 1 2 3 2 2 1 1 4 3 2 2 2 2 3 3 3 3 3 3 3 4 4 4
3 2 2 1 1 1 1 2 2 3 3 4 4 4 4 4 4 4 3 1 2 2 2 2 1 2 0 2 2 2 1 1 1 2 2 3 3 3 3 3 3 3 3 4
2 2 1 1 1 1 1 2 2 2 3 4 5 5 4 3 3 3 2 2 2 3 2 2 4 3 1 2 1 1 1 1 2 2 2 2 3 3 3 3 3 3 3 3
2 1 1 1 0 1 1 1 1 2 2 2 3 4 4 4 3 2 2 5 4 3 2 4 4 2 3 1 1 1 1 2 2 2 2 3 3 3 3 3 3 3 3 4
1 1 0 1 0 0 1 2 2 3 3 2 3 3 3 3 2 2 3 4 5 4 3 4 5 4 3 1 1 1 2 1 2 2 2 3 3 3 3 3 3 3 4 4
1 1 1 0 0 1 1 1 2 2 3 3 2 2 2 2 2 3 3 4 5 4 2 2 2 4 2 1 1 2 2 2 2 3 2 3 3 3 3 3 4 4 4 4
0 0 1 1 1 1 1 1 1 2 2 2 2 1 2 2 2 3 4 4 4 4 3 2 2 2 2 2 2 2 2 2 2 3 3 3 3 3 3 4 4 4 4 4
Wind_Direction
262 268 257 255 255 248 253 267 278 284 284 285 249 232 204 183 172 170 166 164 162 159 148 149 147 147 146 138 142 143 150 145 120 98 75 43 33 15 9 352 348 351 336 328
247 245 251 256 253 249 251 259 266 274 281 289 246 211 202 194 183 181 178 174 168 163 156 153 150 149 148 149 145 150 158 155 129 117 127 131 262 287 352 346 342 346 341 324
251 238 252 248 245 249 249 253 263 271 282 251 233 218 210 199 191 184 177 174 171 167 164 159 156 152 151 145 140 137 147 151 149 188 190 233 262 256 284 297 316 330 327 324
252 242 248 252 244 255 256 261 274 280 275 256 250 230 208 198 192 184 175 170 164 164 161 159 150 143 138 132 129 127 126 142 164 237 249 253 250 271 292 305 314 314 316 325
246 246 248 229 217 237 250 260 272 276 274 255 225 213 199 185 183 178 170 161 160 162 155 142 134 129 130 129 120 114 91 51 329 277 286 287 280 286 290 297 300 298 310 322
241 255 258 239 156 245 253 249 261 278 264 228 209 236 196 156 162 158 154 152 152 151 142 131 127 130 136 129 110 78 53 34 22 359 314 304 302 298 296 288 289 296 308 311
242 250 251 64 117 217 244 292 356 283 251 223 228 291 115 147 157 153 150 149 147 145 140 134 131 132 135 122 100 66 48 35 23 356 314 303 315 309 301 300 305 302 302 301
239 249 248 73 189 243 324 338 318 286 246 230 215 134 143 150 152 150 151 150 149 146 136 135 140 142 137 118 84 68 51 25 351 307 303 358 332 307 299 294 284 290 295 302
248 263 2 318 294 324 320 308 305 286 248 216 191 168 157 157 157 155 155 155 154 149 140 139 147 154 157 143 127 115 298 300 295 300 301 305 293 285 279 279 291 304 302 303
253 253 304 302 302 311 314 308 303 278 242 215 196 174 164 160 160 158 158 158 159 154 151 154 162 168 168 162 175 204 232 246 247 246 254 273 292 298 301 303 305 304 307 309
245 262 272 267 316 329 330 319 311 280 228 208 185 170 165 165 164 163 162 165 167 165 162 162 162 168 178 177 200 230 238 241 250 252 260 274 285 313 309 323 325 306 308 307
267 272 279 284 308 320 320 314 311 255 217 205 185 173 165 162 165 166 167 168 171 172 173 172 172 176 187 203 215 235 241 246 253 259 267 269 273 266 232 268 227 242 264 286
287 293 294 287 294 298 293 289 261 209 206 194 183 174 166 161 166 168 173 179 177 176 178 179 178 182 190 208 224 234 247 256 262 264 264 270 281 290 293 250 220 227 229 238
277 279 277 283 292 289 283 268 219 192 194 189 169 164 162 161 165 169 176 182 177 174 178 181 184 193 200 209 226 239 246 239 250 258 264 271 279 286 292 301 301 293 235 215
272 264 267 283 286 279 263 232 201 184 169 161 155 161 165 166 170 171 173 179 179 182 187 194 200 206 211 214 221 234 245 252 254 267 268 271 279 284 290 296 299 303 306 255
282 268 259 263 270 263 243 224 217 201 181 170 171 174 166 160 163 167 174 181 186 189 193 202 212 214 214 221 225 226 230 233 254 261 267 273 279 283 289 293 293 296 302 314
264 263 265 263 261 251 240 235 232 218 198 189 184 178 166 158 160 169 175 176 183 193 201 208 216 218 218 223 233 239 242 219 217 255 272 284 288 289 292 291 291 296 306 337
265 266 269 266 259 248 236 228 218 205 196 193 180 182 183 174 175 175 173 167 178 198 210 217 224 221 222 225 234 249 249 244 236 253 269 278 286 285 285 288 293 297 307 316
272 271 273 267 257 244 232 225 214 204 192 187 188 192 188 176 173 174 178 186 191 205 217 215 205 224 222 218 231 230 238 242 247 259 268 264 268 282 290 294 297 298 307 316
288 294 285 276 264 246 235 227 218 209 203 194 189 187 179 171 165 169 180 196 211 228 199 192 195 210 216 206 233 230 233 243 252 262 270 275 280 287 289 297 307 311 312 313
309 308 298 296 295 274 252 230 213 206 197 186 185 186 182 174 169 170 184 189 165 153 167 175 196 193 195 200 226 236 232 239 248 264 279 287 292 294 296 301 305 307 305 303
319 313 309 304 290 271 249 214 188 176 170 177 184 178 177 179 181 182 188 184 143 139 171 171 156 94 75 247 227 237 238 247 261 272 279 284 287 288 292 298 297 299 301 304
318 310 306 301 298 284 181 183 175 169 177 177 179 183 187 186 191 189 182 160 151 155 162 114 97 106 252 240 244 229 224 242 262 272 277 286 286 283 288 290 292 294 297 304
329 324 337 342 3 138 144 127 137 158 172 180 179 176 177 178 183 183 154 142 143 155 145 118 133 170 234 228 242 240 245 254 264 282 297 307 308 309 307 300 298 297 298 302
356 355 32 100 180 212 137 139 146 152 159 162 163 167 179 184 179 160 153 152 153 167 150 146 171 205 223 236 236 253 255 271 287 293 298 306 306 309 311 309 308 305 306 306
334 306 348 273 260 237 184 160 163 173 167 156 163 172 166 164 167 168 170 172 172 180 180 163 185 215 224 232 251 267 278 265 260 275 297 299 301 309 312 309 303 305 308 308
202 183 203 201 169 177 190 187 190 186 170 154 159 174 181 183 186 183 187 188 189 197 203 206 216 232 246 252 251 260 269 277 280 285 294 299 307 312 311 305 304 306 305 305
Height
1494 1492 1493 1496 1496 1496 1498 1497 1499 1497 1496 1494 1497 1500 1504 1507 1509 1511 1513 1515 1517 1519 1520 1521 1522 1522 1522 1523 1523 1523 1522 1522 1521 1521 1520 1519 1519 1518 1517 1516 1515 1514 1513 1513
1498 1494 1494 1496 1494 1494 1496 1495 1495 1495 1495 1493 1497 1501 1504 1506 1508 1509 1512 1514 1516 1517 1518 1519 1520 1520 1521 1521 1521 1521 1521 1521 1520 1520 1519 1518 1518 1517 1516 1515 1514 1513 1512 1512
1499 1494 1497 1499 1492 1492 1493 1491 1493 1495 1493 1494 1497 1500 1503 1505 1506 1508 1510 1512 1514 1515 1516 1517 1518 1518 1519 1520 1520 1520 1520 1519 1519 1519 1518 1517 1517 1516 1515 1514 1513 1511 1511 1510
1497 1502 1512 1494 1488 1489 1491 1490 1490 1490 1492 1495 1497 1500 1502 1504 1505 1507 1509 1511 1513 1514 1515 1516 1516 1517 1517 1518 1518 1519 1519 1518 1518 1517 1517 1516 1515 1515 1514 1513 1511 1510 1510 1509
1498 1500 1497 1490 1489 1490 1492 1492 1491 1491 1492 1494 1497 1499 1501 1503 1504 1506 1508 1509 1511 1513 1514 1514 1515 1516 1516 1517 1517 1518 1517 1517 1516 1516 1515 1515 1514 1513 1512 1511 1510 1510 1509 1507
1497 1503 1503 1491 1488 1491 1492 1494 1491 1492 1493 1494 1496 1495 1495 1501 1503 1505 1507 1508 1510 1511 1512 1513 1514 1514 1515 1516 1516 1516 1516 1515 1515 1514 1514 1513 1512 1511 1511 1510 1509 1509 1507 1506
1496 1498 1489 1488 1490 1492 1498 1495 1492 1492 1493 1495 1495 1495 1498 1500 1502 1504 1506 1507 1509 1510 1511 1512 1512 1513 1514 1515 1515 1515 1515 1514 1514 1513 1512 1512 1511 1510 1509 1509 1508 1507 1506 1505
1494 1498 1495 1491 1490 1492 1493 1493 1493 1493 1494 1495 1496 1497 1498 1499 1501 1503 1505 1506 1508 1509 1510 1511 1512 1512 1513 1514 1514 1514 1513 1513 1512 1512 1512 1511 1509 1508 1508 1507 1506 1505 1504 1503
1489 1491 1492 1492 1492 1494 1494 1493 1493 1494 1494 1495 1496 1496 1498 1499 1501 1502 1504 1505 1507 1508 1508 1510 1511 1511 1512 1512 1512 1512 1512 1511 1511 1510 1510 1509 1508 1507 1506 1505 1505 1504 1503 1502
1491 1488 1492 1493 1493 1494 1493 1493 1493 1493 1494 1494 1495 1496 1497 1499 1500 1501 1503 1504 1505 1506 1507 1508 1509 1510 1510 1510 1510 1510 1510 1509 1509 1509 1508 1507 1506 1506 1505 1504 1502 1501 1501 1499
1490 1491 1492 1492 1493 1493 1493 1493 1492 1492 1493 1493 1494 1495 1496 1497 1499 1500 1501 1503 1504 1505 1506 1507 1508 1508 1508 1508 1508 1508 1508 1507 1507 1507 1506 1505 1504 1503 1502 1501 1500 1499 1498 1497
1487 1491 1491 1492 1492 1492 1492 1491 1491 1491 1491 1492 1493 1494 1495 1496 1498 1499 1500 1501 1502 1503 1504 1505 1506 1506 1506 1506 1506 1506 1505 1505 1505 1505 1504 1503 1502 1502 1500 1499 1498 1497 1495 1494
1491 1492 1492 1491 1491 1491 1491 1490 1490 1490 1490 1491 1492 1492 1493 1494 1496 1497 1499 1500 1501 1502 1503 1503 1504 1504 1504 1504 1504 1503 1503 1503 1503 1502 1502 1501 1501 1500 1499 1497 1496 1494 1493 1492
1491 1491 1490 1490 1490 1490 1489 1489 1488 1488 1489 1490 1490 1491 1492 1493 1494 1496 1497 1498 1499 1500 1501 1501 1501 1502 1502 1501 1501 1501 1500 1500 1500 1500 1499 1499 1498 1497 1496 1495 1494 1492 1491 1489
1490 1490 1490 1489 1489 1488 1488 1487 1487 1487 1487 1488 1489 1489 1490 1491 1493 1494 1495 1496 1497 1498 1498 1499 1499 1499 1499 1499 1498 1498 1498 1498 1497 1497 1497 1496 1495 1495 1494 1493 1491 1490 1489 1487
1488 1488 1488 1487 1487 1486 1486 1486 1486 1486 1487 1487 1488 1489 1489 1490 1491 1492 1493 1494 1495 1495 1495 1496 1496 1496 1496 1496 1495 1495 1495 1495 1494 1494 1494 1493 1492 1492 1491 1490 1489 1487 1486 1485
1486 1485 1485 1485 1485 1484 1484 1485 1485 1485 1485 1486 1487 1487 1488 1488 1489 1490 1491 1492 1493 1493 1493 1493 1493 1493 1493 1493 1493 1493 1493 1492 1491 1491 1491 1491 1490 1489 1488 1487 1486 1485 1484 1482
1484 1484 1484 1483 1483 1482 1482 1483 1483 1483 1483 1484 1484 1486 1487 1487 1488 1489 1489 1490 1491 1491 1491 1491 1491 1490 1490 1490 1490 1490 1490 1490 1489 1489 1488 1488 1487 1486 1485 1484 1483 1482 1481 1480
1481 1480 1480 1480 1480 1480 1480 1480 1480 1480 1481 1482 1483 1484 1485 1485 1486 1487 1487 1488 1488 1488 1489 1488 1488 1488 1487 1487 1487 1487 1487 1487 1487 1486 1485 1484 1483 1483 1482 1481 1479 1478 1478 1477
1478 1478 1477 1477 1477 1477 1478 1478 1478 1478 1479 1479 1481 1482 1483 1483 1484 1485 1485 1485 1486 1486 1486 1485 1485 1485 1485 1484 1484 1485 1485 1484 1484 1483 1483 1482 1481 1480 1479 1478 1477 1476 1475 1474
1476 1475 1475 1474 1474 1475 1475 1475 1475 1476 1477 1477 1479 1480 1480 1481 1482 1482 1482 1483 1483 1483 1483 1483 1483 1482 1482 1482 1482 1482 1482 1482 1481 1481 1480 1479 1479 1478 1477 1476 1475 1474 1472 1471
1473 1473 1472 1472 1472 1472 1473 1473 1473 1474 1474 1475 1477 1477 1478 1479 1480 1480 1481 1481 1481 1480 1481 1481 1481 1480 1479 1479 1480 1480 1479 1479 1479 1478 1477 1477 1476 1475 1474 1474 1473 1471 1470 1469
1471 1471 1470 1471 1471 1471 1471 1471 1471 1472 1472 1473 1474 1475 1476 1477 1478 1479 1479 1479 1479 1479 1479 1479 1478 1477 1477 1477 1478 1478 1477 1477 1476 1476 1475 1474 1474 1473 1472 1471 1470 1469 1468 1467
1469 1469 1469 1469 1469 1470 1470 1470 1470 1470 1471 1472 1472 1473 1475 1476 1476 1477 1477 1477 1477 1477 1477 1477 1476 1476 1476 1476 1475 1475 1475 1475 1475 1474 1473 1473 1472 1471 1470 1469 1468 1467 1466 1464
1468 1468 1468 1468 1468 1469 1469 1469 1469 1469 1470 1471 1472 1472 1474 1474 1475 1475 1475 1475 1475 1476 1476 1476 1475 1475 1475 1475 1475 1474 1474 1473 1473 1472 1472 1471 1470 1469 1468 1467 1466 1465 1464 1462
1468 1468 1468 1467 1468 1468 1468 1468 1469 1469 1470 1470 1471 1472 1472 1473 1473 1473 1474 1474 1474 1475 1475 1475 1475 1474 1475 1474 1474 1473 1473 1472 1471 1471 1470 1469 1469 1467 1466 1465 1464 1462 1461 1459
1467 1467 1467 1467 1467 1467 1467 1468 1468 1469 1469 1469 1470 1470 1471 1472 1472 1472 1473 1473 1474 1474 1474 1474 1474 1473 1473 1473 1472 1471 1471 1470 1469 1469 1468 1467 1466 1465 1464 1463 1461 1460 1459 1457